sat.trackr.live / text

‹ back to catalog

STARLINK-35412

NORAD 65797 · 2025-218G

PAYLOAD ACTIVE UNKNOWN

§ Identity

Operator
Country
US
Launch date
2025-09-26
Launch site
AFWTR
Launch vehicle
Mass (kg)
RCS (m²)

Purposes: comms

External: N2YO · Heavens-Above · Gunter

§ Orbital elements

Epoch: 2026-05-25T02:43:17.757408Z

Period
95.64 min
Inclination
97.4502°
Eccentricity
0.0001360
Mean motion
15.05665991 rev/d
Perigee alt
548.5 km
Apogee alt
550.4 km
Semi-major
6,927.6 km
B*
2.0948e-4
RAAN
7.9721°
Arg perigee
114.8765°
Mean anomaly
245.2604°
Rev number
3,647

§ Raw data

STARLINK-354121 65797U 25218G   26145.11339997  .00002966  00000+0  20948-3 0  99902 65797  97.4502   7.9721 0001360 114.8765 245.2604 15.05665991 36471

JSON: /api/v1/satellites/65797 · /tle

For live sub-satellite position, see the globe view (requires WebGL).

§ Visibility from observer

Set your observer location to see the next 7 days of passes ≥ 10°. The values pass through the URL so the page stays shareable.

No JS? Fill the form by hand. The geolocation button needs JavaScript.